Wind_Speed
14 15 16 16 16 16 15 14 14 13 13 13 13 13 13 13 13 14 14 15 16 17 18 18 19 20 20 21 21 21 22 22 22 22 23 24 24 24 24 25 25 25 26
16 17 18 17 17 16 15 14 14 14 13 13 13 14 14 14 15 15 15 16 17 17 18 19 20 20 21 21 22 22 23 23 23 23 24 25 25 25 25 25 25 26 26
17 17 17 17 16 15 15 15 15 14 14 14 14 15 15 16 16 16 16 16 17 17 18 19 19 20 21 22 22 22 23 23 24 24 24 24 24 25 26 27 27 27 28
17 17 17 17 16 16 16 16 15 15 15 14 14 15 15 15 16 17 17 17 17 18 19 20 21 21 21 22 22 22 23 23 23 23 23 24 25 26 27 28 28 28 30
18 17 17 17 16 16 16 15 15 15 15 16 16 16 16 16 16 17 17 18 18 19 20 20 21 21 22 23 22 23 23 23 24 24 24 25 26 26 27 28 28 29 30
18 18 17 17 16 16 16 16 16 16 16 16 17 17 17 17 18 18 18 19 20 21 21 22 22 23 23 23 23 24 24 24 24 25 26 26 26 27 28 29 30 30 31
18 18 17 17 17 16 16 16 16 16 16 17 17 17 17 18 19 19 20 20 21 21 22 22 23 23 24 25 25 25 25 25 26 26 26 27 27 28 29 29 30 31 33
17 17 17 17 16 16 16 16 16 17 17 17 17 18 18 18 19 19 20 21 22 22 23 23 24 25 25 25 25 26 26 26 27 28 28 29 29 30 30 31 32 32 33
16 17 17 16 15 15 16 16 17 17 18 18 18 18 19 19 19 20 21 22 22 23 24 24 25 26 26 26 26 26 27 27 28 29 30 30 30 31 31 32 32 33 33
16 17 16 16 16 16 17 17 18 18 19 18 19 19 19 20 20 21 22 23 23 23 24 25 25 26 26 25 26 27 27 28 29 29 30 30 30 31 32 32 33 33 34
17 17 17 17 17 17 17 18 18 18 19 19 19 20 20 21 22 22 23 23 24 24 25 25 26 26 26 26 27 28 29 29 29 29 30 30 31 32 32 33 33 34 35
18 18 17 17 18 18 18 19 19 19 19 19 19 21 22 23 23 23 24 24 25 25 26 26 26 26 27 28 29 29 30 30 30 30 31 31 32 32 33 34 34 35 35
19 18 18 18 19 19 19 19 19 19 19 20 21 22 22 23 24 24 24 25 25 26 26 26 27 28 29 29 29 29 30 30 30 30 31 32 33 33 33 34 34 34 35
20 20 19 19 19 19 19 19 20 20 20 21 22 22 23 24 25 25 25 26 26 26 26 27 28 28 29 29 30 30 30 30 31 31 32 32 33 33 33 33 34 34 34
21 21 21 20 20 20 20 20 21 21 21 22 23 23 24 25 26 25 25 26 26 26 27 27 28 28 29 29 30 30 30 31 31 32 33 33 33 32 33 33 33 34 34
21 21 20 20 20 20 20 21 21 22 22 23 24 25 25 26 26 26 26 26 26 27 27 28 28 29 29 30 30 30 31 31 32 32 32 32 32 33 33 33 33 33 33
20 20 20 20 20 21 22 22 23 23 23 24 25 26 26 26 26 26 26 26 27 27 28 28 29 29 29 30 30 30 30 31 32 32 32 32 32 32 32 32 32 33 33
20 20 20 21 21 22 22 23 23 24 24 25 26 27 26 26 26 26 26 26 27 28 28 29 29 29 29 30 30 30 31 31 31 32 31 31 32 32 32 32 33 33 33
20 20 21 21 22 22 23 23 24 25 25 25 26 26 26 26 27 26 26 27 28 28 28 29 29 29 29 29 30 30 30 31 31 31 31 31 32 32 32 33 33 33 33
20 21 21 22 22 23 23 24 24 25 25 25 25 26 26 27 26 26 26 27 27 28 28 29 29 30 30 29 30 30 30 30 31 31 31 31 32 32 32 33 33 33 33
21 22 22 22 23 23 24 23 23 24 24 25 26 26 26 26 26 26 26 27 27 28 29 29 30 30 30 29 29 30 30 30 30 31 31 31 32 32 33 33 33 32 32
21 21 22 22 23 23 23 23 23 23 24 24 24 24 25 26 26 26 27 27 28 29 29 29 29 29 29 29 29 29 30 30 30 31 31 31 32 32 32 32 32 31 31
22 22 21 22 22 22 23 23 24 24 24 24 25 25 26 26 26 26 27 27 28 29 29 29 29 29 29 29 29 30 30 30 30 31 31 31 31 31 31 31 31 31 31
21 21 21 21 21 22 22 22 23 23 24 25 25 26 26 26 26 27 27 27 28 28 28 28 29 29 30 30 30 30 30 31 31 30 30 30 30 30 30 31 31 31 31
21 21 21 21 21 22 22 23 23 24 25 25 26 26 26 27 27 27 27 28 28 28 28 29 29 30 30 30 30 30 31 31 30 30 30 30 31 31 31 31 31 31 31
21 21 21 21 21 22 22 23 24 24 24 25 25 25 26 26 26 27 27 27 28 28 29 29 29 29 30 30 31 31 31 30 30 30 30 30 30 31 31 30 30 30 30
Wind_Direction
299 302 306 308 306 303 303 303 300 302 300 292 289 287 287 286 288 289 290 286 287 291 291 289 290 291 291 292 291 292 291 289 289 287 287 289 289 290 289 287 285 286 284
295 298 301 303 303 301 301 302 299 300 302 296 290 287 287 289 291 292 293 288 287 290 293 293 293 294 294 293 293 293 292 290 290 289 289 289 288 288 288 289 288 288 286
292 296 298 301 300 299 299 300 297 294 297 299 295 290 287 288 290 291 289 290 290 292 294 296 295 294 294 294 293 294 294 293 292 290 289 288 287 288 288 289 291 290 289
289 292 295 296 296 296 295 295 293 292 296 298 299 294 291 291 291 292 289 290 293 295 295 297 296 297 298 298 298 298 298 297 296 294 292 291 291 291 290 291 292 291 291
285 288 291 291 292 292 293 293 291 294 296 296 296 294 293 293 292 294 292 293 293 294 295 297 299 300 300 299 298 299 299 298 297 296 295 293 292 293 292 294 293 291 291
281 283 286 289 290 290 291 293 290 292 296 295 296 297 297 296 294 294 295 296 296 296 295 295 295 297 299 299 300 299 299 298 298 297 297 296 295 295 294 293 294 294 294
280 280 283 286 287 286 289 293 294 295 297 297 297 298 298 298 296 296 297 297 296 297 298 297 295 295 296 297 297 298 299 299 297 299 299 298 296 296 296 295 296 297 297
280 281 283 285 287 289 293 294 298 301 301 299 299 299 298 298 298 296 297 298 297 297 299 300 298 296 296 296 299 298 298 300 300 298 298 298 298 298 298 297 297 298 299
285 286 284 284 288 293 296 296 298 300 301 302 301 299 299 299 300 299 299 300 301 299 299 300 299 299 299 298 298 298 298 300 302 302 302 301 300 300 300 301 301 301 299
288 291 290 288 291 293 296 296 297 299 301 299 298 297 298 299 299 298 299 301 301 300 300 299 298 298 299 300 300 300 300 300 300 301 301 301 301 301 302 303 303 301 300
289 291 291 292 291 294 297 297 297 299 300 299 297 298 300 300 300 301 301 301 301 299 299 298 298 300 299 300 301 301 301 301 302 303 303 303 303 303 303 303 302 301 301
289 291 290 289 289 291 296 298 299 300 301 302 300 300 300 301 300 300 300 300 300 300 300 300 300 300 300 301 302 303 302 302 303 304 303 303 303 303 303 303 303 302 301
287 289 290 290 289 291 295 299 300 300 300 299 301 302 303 303 304 303 303 303 303 303 302 302 300 300 300 302 303 303 304 304 304 305 305 305 305 304 304 304 304 303 303
285 287 287 288 290 292 295 298 299 299 300 300 301 303 304 305 305 303 302 301 301 302 302 302 301 301 302 303 303 304 306 306 305 305 306 306 306 305 304 305 305 305 305
282 283 284 287 289 291 294 296 297 299 301 302 303 304 304 305 305 304 304 302 302 302 302 302 302 302 303 303 303 304 304 305 305 305 305 305 305 306 306 306 306 306 305
279 281 285 288 290 292 293 295 297 298 299 301 302 304 305 305 304 304 304 303 303 303 303 303 303 304 304 305 305 306 306 306 307 307 308 308 308 308 308 307 307 307 307
279 283 286 288 290 293 295 296 297 297 298 300 302 304 305 304 304 304 304 304 304 304 304 304 304 305 306 307 307 308 308 308 308 309 310 310 310 310 310 310 310 310 309
280 282 285 287 290 292 295 297 298 298 299 301 303 304 305 305 305 305 305 305 304 305 305 305 305 305 307 308 308 309 309 309 309 310 310 311 311 311 311 312 312 312 311
279 281 285 289 291 294 296 298 299 299 301 302 304 305 306 306 305 304 304 305 305 305 306 307 307 308 308 308 309 309 310 309 309 310 310 310 311 312 312 312 312 312 312
280 283 288 291 294 295 298 299 300 301 302 303 304 305 306 306 305 305 305 306 308 308 308 308 308 308 308 309 309 310 310 310 310 310 310 310 311 312 313 313 313 313 313
281 285 289 292 294 297 298 298 300 301 302 303 304 305 305 305 305 305 306 307 309 309 309 309 309 309 309 310 310 310 310 310 310 310 310 310 311 312 313 314 314 314 315
283 286 289 292 294 296 298 300 302 303 303 304 305 307 307 306 306 306 307 308 309 310 310 310 311 312 312 312 312 310 310 310 309 309 309 311 312 313 314 314 315 315 316
284 287 288 291 294 296 298 299 301 302 304 305 306 308 308 308 308 308 309 309 310 311 312 312 313 313 312 311 310 310 310 310 309 309 310 312 313 314 315 316 316 316 316
282 285 288 289 292 293 296 298 300 302 304 305 306 306 307 308 308 309 309 310 312 313 313 313 313 313 312 312 311 310 310 311 311 312 312 313 314 315 315 316 316 316 316
280 283 285 288 291 293 296 298 300 302 303 304 306 306 307 308 309 311 311 311 312 313 313 313 313 313 313 313 313 312 312 312 313 313 314 315 316 316 316 316 316 316 317
282 284 286 289 291 293 296 298 300 301 303 304 306 307 307 308 310 312 311 311 312 312 313 313 313 313 313 313 313 313 313 313 313 314 314 314 315 316 316 316 316 317 316
Height
5899 5898 5896 5895 5894 5893 5892 5892 5891 5890 5889 5889 5889 5889 5889 5888 5888 5888 5888 5887 5887 5886 5885 5885 5884 5882 5881 5880 5879 5878 5877 5876 5875 5874 5872 5871 5870 5869 5868 5866 5865 5863 5862
5896 5895 5894 5892 5891 5890 5889 5888 5888 5887 5887 5886 5886 5886 5886 5885 5885 5885 5884 5883 5883 5882 5881 5880 5879 5878 5877 5876 5874 5873 5872 5870 5869 5868 5867 5865 5864 5862 5861 5859 5857 5856 5855
5893 5892 5891 5889 5888 5887 5886 5886 5885 5884 5884 5883 5883 5883 5882 5882 5881 5881 5880 5880 5879 5878 5877 5876 5875 5874 5872 5871 5869 5868 5867 5865 5863 5862 5861 5859 5858 5856 5854 5853 5850 5849 5848
5889 5889 5888 5886 5885 5884 5883 5883 5882 5881 5881 5880 5880 5880 5879 5878 5878 5877 5876 5876 5875 5874 5873 5872 5871 5869 5867 5866 5864 5863 5861 5859 5858 5856 5855 5853 5851 5849 5847 5846 5844 5842 5840
5886 5885 5884 5883 5882 5881 5881 5880 5879 5879 5878 5877 5876 5876 5875 5875 5874 5873 5872 5872 5871 5870 5869 5867 5866 5864 5862 5861 5859 5857 5856 5854 5852 5850 5849 5846 5845 5842 5840 5838 5836 5834 5831
5881 5881 5880 5880 5879 5878 5878 5877 5876 5875 5875 5874 5873 5872 5871 5871 5870 5869 5868 5868 5866 5865 5864 5863 5861 5859 5857 5855 5853 5852 5850 5848 5846 5844 5842 5840 5838 5835 5833 5831 5828 5826 5824
5877 5877 5877 5877 5876 5875 5875 5874 5872 5872 5871 5870 5869 5868 5868 5867 5866 5865 5864 5863 5862 5860 5859 5857 5855 5854 5852 5850 5848 5846 5844 5842 5840 5838 5835 5833 5831 5828 5826 5823 5820 5817 5815
5873 5873 5873 5872 5872 5871 5871 5870 5869 5868 5867 5867 5866 5865 5864 5863 5862 5861 5859 5858 5856 5855 5853 5852 5850 5848 5846 5844 5842 5840 5838 5836 5833 5831 5828 5826 5823 5821 5818 5815 5812 5809 5806
5870 5869 5869 5869 5868 5868 5867 5867 5866 5865 5864 5862 5861 5861 5860 5859 5858 5856 5855 5853 5851 5850 5848 5846 5844 5842 5840 5838 5836 5834 5832 5829 5826 5824 5821 5818 5815 5813 5810 5807 5804 5801 5797
5867 5867 5866 5865 5865 5864 5864 5863 5862 5861 5860 5858 5858 5857 5856 5855 5853 5852 5850 5848 5846 5844 5842 5841 5839 5836 5834 5832 5830 5828 5825 5823 5820 5817 5814 5810 5807 5804 5801 5798 5795 5792 5788
5864 5863 5863 5862 5861 5861 5860 5859 5858 5857 5856 5855 5854 5853 5851 5850 5848 5846 5845 5843 5841 5839 5837 5835 5832 5830 5828 5826 5823 5821 5818 5815 5812 5809 5806 5803 5800 5796 5793 5789 5786 5782 5778
5861 5860 5859 5859 5858 5857 5856 5855 5854 5853 5852 5851 5849 5848 5847 5845 5843 5841 5839 5837 5835 5833 5831 5829 5826 5824 5822 5819 5816 5813 5810 5807 5805 5802 5799 5796 5792 5788 5784 5780 5777 5773 5769
5857 5856 5855 5855 5854 5853 5852 5851 5850 5849 5848 5847 5845 5844 5842 5839 5838 5836 5833 5831 5829 5827 5824 5822 5820 5818 5815 5812 5809 5806 5803 5800 5797 5794 5791 5787 5783 5780 5776 5772 5768 5764 5760
5853 5852 5852 5851 5850 5849 5848 5847 5846 5845 5843 5842 5840 5838 5836 5834 5832 5830 5828 5825 5823 5821 5818 5816 5813 5811 5808 5805 5802 5799 5795 5792 5789 5786 5782 5779 5775 5771 5767 5763 5759 5755 5751
5848 5848 5847 5846 5845 5845 5844 5843 5841 5840 5838 5837 5835 5833 5831 5829 5826 5824 5822 5819 5817 5815 5812 5809 5807 5804 5801 5798 5795 5791 5788 5785 5781 5778 5774 5770 5766 5762 5758 5754 5750 5745 5742
5843 5843 5842 5841 5841 5840 5839 5838 5836 5835 5833 5831 5829 5827 5825 5823 5820 5818 5815 5813 5810 5808 5805 5803 5800 5797 5794 5791 5787 5784 5780 5777 5773 5769 5765 5761 5757 5753 5749 5745 5741 5737 5732
5838 5838 5838 5837 5836 5835 5834 5832 5831 5830 5828 5826 5824 5821 5819 5817 5814 5811 5809 5806 5803 5801 5798 5796 5793 5790 5786 5783 5779 5776 5772 5769 5765 5761 5757 5753 5749 5745 5741 5736 5732 5728 5723
5833 5833 5833 5832 5831 5830 5829 5827 5826 5824 5822 5820 5818 5815 5813 5810 5808 5805 5802 5800 5797 5794 5791 5788 5785 5782 5779 5775 5772 5768 5765 5761 5757 5753 5749 5745 5741 5737 5733 5728 5724 5719 5715
5828 5828 5828 5827 5825 5824 5823 5821 5820 5818 5816 5814 5812 5809 5807 5804 5801 5799 5796 5793 5790 5787 5784 5781 5778 5775 5771 5768 5764 5761 5757 5753 5749 5745 5741 5737 5733 5729 5725 5720 5716 5711 5707
5823 5823 5822 5821 5820 5819 5817 5815 5814 5812 5810 5808 5806 5803 5801 5798 5795 5792 5790 5787 5784 5781 5777 5774 5771 5767 5764 5760 5757 5753 5749 5746 5742 5738 5734 5730 5725 5721 5717 5712 5708 5703 5699
5818 5817 5816 5815 5814 5813 5811 5810 5808 5806 5804 5802 5800 5797 5794 5792 5789 5786 5783 5780 5777 5774 5770 5767 5763 5760 5756 5753 5749 5746 5742 5738 5734 5730 5726 5722 5718 5713 5709 5704 5700 5695 5691
5813 5812 5811 5810 5808 5807 5806 5804 5802 5800 5798 5796 5793 5791 5788 5785 5783 5780 5776 5774 5770 5767 5764 5760 5757 5753 5749 5746 5742 5739 5735 5731 5727 5723 5718 5714 5710 5706 5701 5697 5692 5688 5684
5807 5806 5805 5804 5803 5801 5800 5798 5796 5794 5792 5790 5787 5785 5782 5779 5776 5773 5770 5767 5764 5761 5757 5754 5750 5746 5743 5739 5735 5732 5728 5723 5719 5715 5711 5707 5702 5698 5694 5689 5685 5681 5677
5801 5800 5799 5798 5797 5796 5794 5792 5790 5788 5786 5784 5781 5779 5776 5773 5770 5767 5764 5761 5758 5754 5751 5747 5744 5740 5736 5732 5728 5724 5720 5716 5712 5708 5704 5700 5695 5691 5687 5683 5678 5674 5670
5795 5794 5793 5792 5791 5790 5788 5786 5784 5782 5780 5778 5775 5772 5770 5767 5764 5761 5757 5754 5751 5748 5744 5741 5737 5733 5729 5726 5722 5717 5713 5709 5705 5701 5697 5693 5688 5684 5680 5676 5671 5667 5663
5789 5788 5787 5786 5785 5784 5782 5780 5778 5776 5774 5771 5769 5766 5763 5761 5758 5754 5751 5748 5745 5741 5738 5734 5730 5726 5723 5719 5715 5711 5707 5703 5699 5694 5690 5686 5682 5677 5673 5669 5664 5660 5656